TimePDT,TemperatureF,Dew PointF,Humidity,Sea Level PressureIn,VisibilityMPH,Wind Direction,Wind SpeedMPH,Gust SpeedMPH,PrecipitationIn,Events,Conditions,WindDirDegrees,DateUTC
12:31 AM,50.0,46.4,87,30.15,7.0,East,3.5,-,N/A,,Scattered Clouds,90,2013-06-13 07:31:00
12:53 AM,48.9,46.0,90,30.15,7.0,Calm,Calm,-,N/A,,Clear,0,2013-06-13 07:53:00
1:51 AM,46.4,44.6,93,30.15,2.5,Calm,Calm,-,N/A,,Partly Cloudy,0,2013-06-13 08:51:00
1:53 AM,46.9,44.1,90,30.16,2.0,Calm,Calm,-,N/A,,Partly Cloudy,0,2013-06-13 08:53:00
2:07 AM,48.2,44.6,87,30.15,6.0,Calm,Calm,-,N/A,,Scattered Clouds,0,2013-06-13 09:07:00
2:20 AM,48.2,44.6,87,30.15,7.0,Calm,Calm,-,N/A,,Mostly Cloudy,0,2013-06-13 09:20:00
2:37 AM,46.4,44.6,93,30.16,5.0,NNE,3.5,-,N/A,,Scattered Clouds,30,2013-06-13 09:37:00
2:45 AM,46.4,44.6,93,30.16,2.5,Calm,Calm,-,N/A,,Mostly Cloudy,0,2013-06-13 09:45:00
2:51 AM,46.4,44.6,93,30.16,1.2,Calm,Calm,-,N/A,,Mostly Cloudy,0,2013-06-13 09:51:00
2:53 AM,46.9,44.1,90,30.16,1.0,Calm,Calm,-,N/A,,Mist,0,2013-06-13 09:53:00
3:00 AM,48.2,44.6,87,30.16,0.5,Calm,Calm,-,N/A,Fog,Fog,0,2013-06-13 10:00:00
3:07 AM,48.2,44.6,87,30.16,0.2,Calm,Calm,-,N/A,Fog,Fog,0,2013-06-13 10:07:00
3:14 AM,48.2,44.6,87,30.16,0.8,Calm,Calm,-,N/A,,Overcast,0,2013-06-13 10:14:00
3:24 AM,46.4,44.6,93,30.16,1.2,Calm,Calm,-,N/A,,Overcast,0,2013-06-13 10:24:00
3:36 AM,46.4,44.6,93,30.16,0.5,NE,3.5,-,N/A,Fog,Fog,50,2013-06-13 10:36:00
3:48 AM,46.4,44.6,93,30.16,0.2,NE,3.5,-,N/A,Fog,Fog,50,2013-06-13 10:48:00
3:53 AM,46.9,43.0,86,30.16,0.2,Calm,Calm,-,N/A,Fog,Fog,0,2013-06-13 10:53:00
4:00 AM,46.4,42.8,87,30.16,0.2,NE,3.5,-,N/A,Fog,Fog,40,2013-06-13 11:00:00
4:07 AM,46.4,42.8,87,30.16,0.5,Calm,Calm,-,N/A,Fog,Fog,0,2013-06-13 11:07:00
4:24 AM,46.4,42.8,87,30.16,0.5,Calm,Calm,-,N/A,Fog,Fog,0,2013-06-13 11:24:00
4:34 AM,46.4,42.8,87,30.17,1.0,Calm,Calm,-,N/A,,Overcast,0,2013-06-13 11:34:00
4:39 AM,46.4,42.8,87,30.16,1.5,Calm,Calm,-,N/A,,Overcast,0,2013-06-13 11:39:00
4:44 AM,46.4,42.8,87,30.16,2.0,Calm,Calm,-,N/A,,Overcast,0,2013-06-13 11:44:00
4:53 AM,46.9,44.1,90,30.17,4.0,Calm,Calm,-,N/A,,Overcast,0,2013-06-13 11:53:00
5:53 AM,48.9,45.0,86,30.17,7.0,Calm,Calm,-,N/A,,Overcast,0,2013-06-13 12:53:00
6:00 AM,48.2,44.6,87,30.17,7.0,Calm,Calm,-,N/A,,Overcast,0,2013-06-13 13:00:00
6:53 AM,50.0,46.9,89,30.18,8.0,North,5.8,-,N/A,,Overcast,360,2013-06-13 13:53:00
7:50 AM,53.6,48.2,82,30.18,8.0,Calm,Calm,-,N/A,,Overcast,0,2013-06-13 14:50:00
7:53 AM,54.0,48.9,83,30.18,8.0,Calm,Calm,-,N/A,,Overcast,0,2013-06-13 14:53:00
8:53 AM,55.9,48.0,75,30.19,8.0,NNE,4.6,-,N/A,,Overcast,30,2013-06-13 15:53:00
9:53 AM,55.9,48.0,75,30.20,8.0,NW,3.5,-,N/A,,Overcast,320,2013-06-13 16:53:00
10:53 AM,59.0,50.0,72,30.21,8.0,Calm,Calm,-,N/A,,Mostly Cloudy,0,2013-06-13 17:53:00
11:53 AM,61.0,50.0,67,30.22,8.0,NNW,8.1,-,N/A,,Overcast,340,2013-06-13 18:53:00
12:53 PM,63.0,50.0,63,30.22,8.0,WNW,6.9,-,N/A,,Mostly Cloudy,300,2013-06-13 19:53:00
1:53 PM,63.0,51.1,65,30.24,8.0,West,11.5,16.1,N/A,,Mostly Cloudy,280,2013-06-13 20:53:00
2:27 PM,62.6,51.8,68,30.23,8.0,Variable,6.9,-,N/A,,Mostly Cloudy,0,2013-06-13 21:27:00
2:46 PM,62.6,51.8,68,30.24,8.0,NW,9.2,-,N/A,,Mostly Cloudy,320,2013-06-13 21:46:00
2:53 PM,63.0,50.0,63,30.24,8.0,NW,10.4,-,N/A,,Mostly Cloudy,310,2013-06-13 21:53:00
3:11 PM,62.6,50.0,63,30.24,8.0,WNW,10.4,-,N/A,,Scattered Clouds,290,2013-06-13 22:11:00
3:43 PM,64.4,51.8,64,30.24,5.0,Variable,6.9,-,N/A,,Haze,0,2013-06-13 22:43:00
3:53 PM,63.0,48.0,58,30.25,4.0,NNW,12.7,-,N/A,,Haze,330,2013-06-13 22:53:00
4:53 PM,61.0,46.9,60,30.25,8.0,West,11.5,-,N/A,,Overcast,270,2013-06-13 23:53:00
5:53 PM,60.1,48.0,64,30.25,8.0,West,9.2,-,N/A,,Overcast,270,2013-06-14 00:53:00
6:53 PM,59.0,48.0,67,30.25,8.0,WNW,6.9,-,N/A,,Overcast,300,2013-06-14 01:53:00
7:53 PM,57.0,46.9,69,30.26,8.0,West,4.6,-,N/A,,Overcast,280,2013-06-14 02:53:00
8:53 PM,55.9,46.9,72,30.26,9.0,WSW,3.5,-,N/A,,Overcast,250,2013-06-14 03:53:00
9:53 PM,55.9,46.0,69,30.27,10.0,West,3.5,-,N/A,,Overcast,280,2013-06-14 04:53:00
10:53 PM,54.0,46.9,77,30.27,8.0,WSW,6.9,-,N/A,,Overcast,240,2013-06-14 05:53:00
11:17 PM,53.6,50.0,88,30.27,2.5,Calm,Calm,-,0.00,Rain,Light Rain,0,2013-06-14 06:17:00
11:27 PM,53.6,50.0,88,30.27,3.0,South,3.5,-,0.00,,Overcast,180,2013-06-14 06:27:00
11:37 PM,53.6,48.2,82,30.27,6.0,Calm,Calm,-,0.00,,Overcast,0,2013-06-14 06:37:00
11:53 PM,53.1,48.9,86,30.27,5.0,Calm,Calm,-,0.00,,Overcast,0,2013-06-14 06:53:00